Powrót do katalogu

CZ-6A DEB

AktywnyPO
NORAD 54967·DEBRIS·🇨🇳 China

Wystrzelony Nov 11, 2022 z Taiyuan Satellite Launch Center

Loading…

Następne Przeloty (najbliższe 24 godziny)

TLE

ŚwieżeSource: Space-Track

Epoka: Sep 13, 2026, 09:42 UTC

1 54967U 22151TG  26256.40473639  .00000113  00000-0  19278-3 0  9994
2 54967  99.0441 119.8266 0424023 218.5179 138.4976 13.31119266186232

Śledź CZ-6A DEB w czasie rzeczywistym z AllMySat

Download on the App Store